{"data":{"norad_id":63808,"epoch":"2026-09-19T02:31:16.539456Z","epoch_age_seconds":270242,"freshness":"STALE","line1":"1 63808U 25092E   26262.10505254  .00011312  00000+0  41985-3 0  9990","line2":"2 63808  43.0043 160.3581 0001981 264.2395  95.8230 15.27587681 78243","mean_motion":15.27587681,"eccentricity":0.0001981,"inclination_deg":43.0043,"raan_deg":160.3581,"arg_perigee_deg":264.2395,"mean_anomaly_deg":95.823,"bstar":0.00041985,"rev_number":7824,"period_min":94.266274722596,"perigee_km":481.66690004939,"apogee_km":484.38529286821,"semimajor_km":6861.1630964588,"source":"CELESTRAK","updated_at":"2026-09-21T09:00:35.104728Z"}}